Hourly Weather Newport

Today, 20 September, Sunday

Time Temperature Precipitation Wind Pressure Humidity
00:00 +16°C° 0 mm 7 mps 758 mmHg 70%
01:00 +15°C° 0 mm 7 mps 758 mmHg 74%
02:00 +15°C° 0 mm 7 mps 758 mmHg 78%
03:00 +14°C° 0 mm 7 mps 758 mmHg 83%
04:00 +14°C° 0 mm 7 mps 758 mmHg 84%
05:00 +14°C° 0 mm 7 mps 758 mmHg 85%
06:00 +14°C° 0 mm 7 mps 759 mmHg 90%
07:00 +15°C° 0 mm 7 mps 759 mmHg 84%
08:00 +16°C° 0 mm 7 mps 759 mmHg 79%
09:00 +17°C° 0 mm 7 mps 759 mmHg 74%
10:00 +20°C° 0 mm 6 mps 759 mmHg 69%
11:00 +21°C° 0 mm 6 mps 759 mmHg 64%
12:00 +23°C° 0 mm 6 mps 759 mmHg 59%
13:00 +23°C° 0 mm 6 mps 759 mmHg 58%
14:00 +23°C° 0 mm 5 mps 759 mmHg 57%
15:00 +25°C° 0 mm 5 mps 758 mmHg 56%
16:00 +23°C° 0 mm 5 mps 758 mmHg 59%
17:00 +21°C° 0 mm 5 mps 759 mmHg 63%
18:00 +20°C° 0 mm 5 mps 759 mmHg 66%
19:00 +19°C° 0 mm 5 mps 759 mmHg 67%
20:00 +17°C° 0 mm 6 mps 759 mmHg 69%
21:00 +16°C° 0 mm 6 mps 759 mmHg 70%
22:00 +15°C° 0 mm 6 mps 759 mmHg 72%
23:00 +15°C° 0 mm 6 mps 759 mmHg 74%

Tomorrow, 21 September, Monday

Time Temperature Precipitation Wind Pressure Humidity
00:00 +14°C° 0 mm 5 mps 759 mmHg 75%
01:00 +14°C° 0 mm 5 mps 759 mmHg 78%
02:00 +13°C° 0 mm 5 mps 759 mmHg 82%
03:00 +13°C° 0 mm 4 mps 759 mmHg 85%
04:00 +13°C° 0 mm 4 mps 759 mmHg 87%
05:00 +13°C° 0 mm 4 mps 759 mmHg 88%
06:00 +12°C° 0 mm 4 mps 759 mmHg 90%
07:00 +14°C° 0 mm 4 mps 759 mmHg 83%
08:00 +17°C° 0 mm 3 mps 759 mmHg 75%
09:00 +19°C° 0 mm 3 mps 759 mmHg 68%
10:00 +20°C° 0 mm 3 mps 759 mmHg 62%
11:00 +21°C° 0 mm 2 mps 759 mmHg 57%
12:00 +24°C° 0 mm 2 mps 759 mmHg 51%
13:00 +24°C° 0 mm 2 mps 758 mmHg 52%
14:00 +24°C° 0 mm 2 mps 758 mmHg 53%
15:00 +24°C° 0 mm 2 mps 758 mmHg 53%
16:00 +21°C° 0 mm 2 mps 758 mmHg 59%
17:00 +21°C° 0 mm 1 mps 757 mmHg 64%
18:00 +20°C° 0 mm 1 mps 757 mmHg 70%
19:00 +19°C° 0 mm 1 mps 757 mmHg 72%
20:00 +18°C° 0 mm 1 mps 757 mmHg 75%
21:00 +18°C° 0 mm 1 mps 757 mmHg 77%
22:00 +18°C° 0 mm 1 mps 757 mmHg 78%
23:00 +15°C° 0 mm 0 mps 757 mmHg 79%

Day after tomorrow, 22 September, Tuesday

Time Temperature Precipitation Wind Pressure Humidity
00:00 +15°C° 0 mm 0 mps 756 mmHg 80%
01:00 +15°C° 0 mm 0 mps 756 mmHg 80%
02:00 +16°C° 0 mm 1 mps 756 mmHg 81%
03:00 +16°C° 0 mm 1 mps 755 mmHg 81%
04:00 +16°C° 0 mm 1 mps 755 mmHg 81%
05:00 +16°C° 0 mm 1 mps 755 mmHg 81%
06:00 +15°C° 0 mm 1 mps 754 mmHg 81%
07:00 +17°C° 0 mm 2 mps 754 mmHg 75%
08:00 +18°C° 0 mm 2 mps 754 mmHg 70%
09:00 +20°C° 0 mm 3 mps 754 mmHg 64%
10:00 +21°C° 0 mm 3 mps 753 mmHg 62%
11:00 +21°C° 0 mm 4 mps 753 mmHg 61%
12:00 +22°C° 0 mm 5 mps 753 mmHg 60%
13:00 +21°C° 0 mm 5 mps 752 mmHg 63%
14:00 +21°C° 0 mm 5 mps 752 mmHg 67%
15:00 +21°C° 0 mm 6 mps 751 mmHg 70%
16:00 +20°C° 0 mm 6 mps 751 mmHg 75%
17:00 +17°C° 0 mm 6 mps 751 mmHg 81%
18:00 +16°C° 0 mm 7 mps 751 mmHg 86%
19:00 +16°C° 0 mm 6 mps 751 mmHg 86%
20:00 +16°C° 0 mm 6 mps 750 mmHg 87%
21:00 +16°C° 0 mm 5 mps 750 mmHg 87%
22:00 +16°C° 0 mm 5 mps 750 mmHg 88%
23:00 +16°C° 0 mm 5 mps 750 mmHg 90%

23 September, Wednesday

Time Temperature Precipitation Wind Pressure Humidity
00:00 +15°C° 0 mm 5 mps 749 mmHg 91%
01:00 +16°C° 0.4 mm 6 mps 749 mmHg 91%
02:00 +16°C° 0.4 mm 7 mps 748 mmHg 90%
03:00 +16°C° 0.4 mm 8 mps 748 mmHg 90%
04:00 +16°C° 0.3 mm 8 mps 748 mmHg 90%
05:00 +15°C° 0.3 mm 7 mps 748 mmHg 89%
06:00 +15°C° 0.3 mm 7 mps 747 mmHg 89%
07:00 +15°C° 0.3 mm 7 mps 747 mmHg 86%
08:00 +16°C° 0.3 mm 7 mps 747 mmHg 84%
09:00 +17°C° 0.3 mm 7 mps 747 mmHg 81%
10:00 +17°C° 0.5 mm 7 mps 747 mmHg 79%
11:00 +17°C° 0.5 mm 6 mps 747 mmHg 76%
12:00 +17°C° 0.5 mm 5 mps 747 mmHg 74%
13:00 +17°C° 0.2 mm 6 mps 747 mmHg 74%
14:00 +16°C° 0.2 mm 6 mps 747 mmHg 75%
15:00 +16°C° 0.2 mm 7 mps 747 mmHg 75%
16:00 +15°C° 0.1 mm 7 mps 747 mmHg 73%
17:00 +14°C° 0.1 mm 7 mps 747 mmHg 72%
18:00 +12°C° 0.1 mm 7 mps 747 mmHg 70%
19:00 +11°C° 0 mm 7 mps 748 mmHg 73%
20:00 +10°C° 0 mm 7 mps 749 mmHg 77%
21:00 +8°C° 0 mm 7 mps 749 mmHg 80%
22:00 +8°C° 0 mm 6 mps 749 mmHg 80%
23:00 +8°C° 0 mm 6 mps 750 mmHg 80%

24 September, Thursday

Time Temperature Precipitation Wind Pressure Humidity
00:00 +7°C° 0 mm 6 mps 750 mmHg 81%
01:00 +7°C° 0 mm 6 mps 750 mmHg 80%
02:00 +8°C° 0 mm 6 mps 749 mmHg 79%
03:00 +8°C° 0 mm 6 mps 749 mmHg 78%
04:00 +9°C° 0.1 mm 7 mps 749 mmHg 77%
05:00 +10°C° 0.1 mm 9 mps 748 mmHg 77%
06:00 +9°C° 0.1 mm 10 mps 748 mmHg 77%
07:00 +9°C° 2 mm 10 mps 747 mmHg 79%
08:00 +9°C° 2 mm 10 mps 747 mmHg 81%
09:00 +9°C° 2 mm 10 mps 747 mmHg 83%
10:00 +11°C° 0.5 mm 11 mps 746 mmHg 75%
11:00 +12°C° 0.5 mm 12 mps 746 mmHg 68%
12:00 +12°C° 0.5 mm 13 mps 746 mmHg 60%
13:00 +12°C° 0.2 mm 14 mps 745 mmHg 60%
14:00 +12°C° 0.2 mm 14 mps 745 mmHg 59%
15:00 +12°C° 0.2 mm 14 mps 745 mmHg 59%
16:00 +10°C° 0.5 mm 14 mps 744 mmHg 64%
17:00 +9°C° 0.5 mm 14 mps 744 mmHg 68%
18:00 +8°C° 0.5 mm 14 mps 744 mmHg 73%
19:00 +8°C° 0.4 mm 13 mps 744 mmHg 75%
20:00 +8°C° 0.4 mm 12 mps 744 mmHg 77%
21:00 +7°C° 0.4 mm 11 mps 744 mmHg 79%
22:00 +7°C° 0.1 mm 12 mps 744 mmHg 79%
23:00 +7°C° 0.1 mm 12 mps 744 mmHg 79%

25 September, Friday

Time Temperature Precipitation Wind Pressure Humidity
00:00 +7°C° 0.1 mm 13 mps 745 mmHg 79%
01:00 +7°C° 0.5 mm 13 mps 745 mmHg 81%
02:00 +5°C° 0.5 mm 12 mps 745 mmHg 84%
03:00 +5°C° 0.5 mm 12 mps 745 mmHg 86%
04:00 +5°C° 0.7 mm 13 mps 745 mmHg 84%
05:00 +7°C° 0.7 mm 13 mps 746 mmHg 82%
06:00 +7°C° 0.7 mm 13 mps 746 mmHg 79%
07:00 +7°C° 0.1 mm 13 mps 747 mmHg 79%
08:00 +7°C° 0.1 mm 13 mps 747 mmHg 79%
09:00 +7°C° 0.1 mm 13 mps 748 mmHg 79%
10:00 +8°C° 0.1 mm 12 mps 748 mmHg 74%
11:00 +9°C° 0.1 mm 12 mps 749 mmHg 69%
12:00 +11°C° 0.1 mm 11 mps 750 mmHg 64%
13:00 +11°C° 0.1 mm 11 mps 750 mmHg 63%
14:00 +11°C° 0.1 mm 11 mps 751 mmHg 63%
15:00 +11°C° 0.1 mm 11 mps 751 mmHg 62%
16:00 +9°C° 0.1 mm 10 mps 752 mmHg 64%
17:00 +9°C° 0.1 mm 10 mps 752 mmHg 67%
18:00 +8°C° 0.1 mm 9 mps 753 mmHg 70%
19:00 +7°C° 0 mm 9 mps 753 mmHg 71%
20:00 +7°C° 0 mm 9 mps 754 mmHg 73%
21:00 +6°C° 0 mm 8 mps 755 mmHg 75%
22:00 +6°C° 0 mm 8 mps 755 mmHg 76%
23:00 +6°C° 0 mm 8 mps 755 mmHg 78%
Show more